www.pogodaiklimat.ru

Погода и климат >> Архив погоды >> Индия >> Западная Бенгалия >> Даймонд Харбор


ПОГОДА в Даймонд Харбор

  • Прогноз погоды в Даймонд Харбор
  • Монитор погоды в Даймонд Харбор

АРХИВ ПОГОДЫ в Даймонд Харбор

Время (UTC), дата Ветер
(напр.,м/с)
 
Видим.   Явления Облачность Т
(С)
Тd
(С)
f
(%)
Тe
(С)
Тes
(С)
Комфортность P
(гПа)
Po
(гПа)
Тmin
(С)
Tmax
(С)
R
(мм)
R24
(мм)
S
(см)
03 20.05 Ю 0 4000 м 8/5 600 м
[Sc diur, vesp Ac trans]
+31.8 +29.7 89 +57 +63 опасность
перегрева
1008.3 1007.5 +29.1
06 20.05 Ю 0 4000 м ясно +35.0 +31.5 82 +68 +98 опасность
перегрева
1008.1 1007.3
09 20.05 Ю 0 4000 м ясно +36.0 +31.4 77 +68 +85 опасность
перегрева
1006.2 1005.4
12 20.05 Ю 0 4000 м 3/3 1000 м
[Sc diur, vesp]
+33.0 +29.2 81 +58 +58 опасность
перегрева
1005.5 1004.7 +37.2
03 21.05 Ю 0 4000 м 8/5 1000 м
[Sc diur, vesp Ac trans]
+31.6 +29.5 89 +57 +62 опасность
перегрева
1008.0 1007.2 +29.3
06 21.05 Ю 0 4000 м 3/3 1000 м
[Sc diur, vesp]
+34.0 +30.7 83 +64 +85 опасность
перегрева
1007.4 1006.6
09 21.05 Ю 0 4000 м ясно +34.6 +30.5 79 +63 +81 опасность
перегрева
1005.6 1004.8
12 21.05 Ю 0 4000 м 3/3 1000 м
[Sc diur, vesp]
+32.0 +29.9 89 +58 +59 опасность
перегрева
1004.7 1003.9 +35.2
03 22.05 Ю 0 4000 м 1/1 1000 м
[Cu hum]
+32.0 +29.3 86 +56 +71 опасность
перегрева
1006.3 1005.5 +29.4
06 22.05 Ю 0 4000 м ясно +34.4 +31.8 86 +68 +98 опасность
перегрева
1006.4 1005.6
09 22.05 Ю 0 4000 м 3/3 1000 м
[Sc diur, vesp]
+34.6 +31.4 84 +67 +80 опасность
перегрева
1004.3 1003.5
12 22.05 Ю 0 4000 м 9/8 600 м
[Cb calv Ac trans]
+32.6 +30.2 87 +60 +60 опасность
перегрева
1003.4 1002.6 +35.8
03 23.05 Ю 0 4000 м 4/4 1000 м
[Sc]
+31.6 +29.2 87 +55 +65 опасность
перегрева
1007.2 1006.4 +26.9
06 23.05 Ю 0 4000 м 9/6 600 м
[Frnb Ac trans]
+33.4 +30.4 84 +61 +68 опасность
перегрева
1007.0 1006.2
09 23.05 Ю 0 4000 м 5/4 1000 м
[Sc Ac trans]
+34.4 +29.8 77 +61 +70 опасность
перегрева
1004.8 1004.0
12 23.05 Ю 0 4000 м 9/8 600 м
[Cb calv Ac trans]
+32.2 +29.3 85 +57 +57 опасность
перегрева
1003.6 1002.8 +34.5
03 24.05 ЮВ 0 4000 м 6/5 600 м
[Sc Ac trans]
+31.6 +29.8 90 +57 +64 опасность
перегрева
1005.5 1004.7 +29.4
06 24.05 Ю 0 4000 м 3/3 1000 м
[Sc]
+34.6 +31.4 84 +67 +88 опасность
перегрева
1004.6 1003.8
09 24.05 ЮВ 0 4000 м ясно +34.8 +31.6 84 +68 +86 опасность
перегрева
1002.5 1001.7
12 24.05 Ю 0 4000 м ясно +32.6 +30.2 87 +60 +61 опасность
перегрева
1001.2 1000.4 +35.4
03 25.05 Ю 0 4000 м 9/5 600 м
[Sc Ac trans]
+30.6 +29.5 94 +55 +59 опасность
перегрева
1003.7 1002.9 +25.3 8
06 25.05 Ю 0 4000 м 9/5 1000 м
[Sc diur, vesp Ac trans]
+32.8 +30.7 89 +62 +70 опасность
перегрева
1003.3 1002.5
09 25.05 Ю 0 4000 м 9/6 600 м
[Frnb Ac trans]
+32.6 +31.1 92 +64 +67 опасность
перегрева
1002.4 1001.6
12 25.05 Ю 0 4000 м 6/4 1000 м
[Sc diur, vesp Ac trans]
+31.6 +30.6 94 +60 +60 опасность
перегрева
1001.5 1000.7 +33.7
03 26.05 Ю 0 4000 м 5/4 1000 м
[Sc diur, vesp Ac trans]
+31.6 +29.8 90 +57 +66 опасность
перегрева
1004.6 1003.8 +25.2 0.2
06 26.05 Ю 0 4000 м 6/5 1000 м
[Sc diur, vesp Ac trans]
+33.8 +32.3 92 +70 +83 опасность
перегрева
1004.4 1003.6
09 26.05 Ю 0 4000 м ясно +34.6 +32.6 89 +72 +90 опасность
перегрева
1002.5 1001.7
12 26.05 Ю 0 4000 м ясно +32.8 +31.5 93 +65 +66 опасность
перегрева
1001.8 1001.0 +35.3

 

Местоположение метеостанции Даймонд Харбор (Западная Бенгалия, Индия): широта 22.18 долгота 88.20 высота над уровнем моря 7 м.

В архиве по умолчанию представлена погода в Даймонд Харбор за последнюю неделю. Архивные данные за месяц целиком и за предыдущие месяцы, начиная с января 2011 года, Вы можете получить, выбрав интересующий диапазон дат из раскрывающегося списка и нажав кнопку "Ввод!".


*Определитесь, кто Вы:
робот инопланетянин человек

Внимание! Время в таблицах - всемирное. Для получения местного времени необходимо прибавить поправку, которая равна 5.5 ч.

Смотрите также архив погоды в соседних городах и на ближайших метеорологических станциях:

Погода в Халдии (Западная Бенгалия, Индия) (23 км)
Погода в Колкате (Западная Бенгалия, Индия) (41 км)
Погода в Улуберии (Западная Бенгалия, Индия) (44 км)
Погода в Каннинге (Западная Бенгалия, Индия) (49 км)
Погода в Колката аэропорту (Западная Бенгалия, Индия) (58 км)
Погода в Контае (Западная Бенгалия, Индия) (64 км)
Погода в Бейсирхэте (Западная Бенгалия, Индия) (86 км)
Погода в Багати (Западная Бенгалия, Индия) (91 км)
Погода в Миднапуре (Западная Бенгалия, Индия) (94 км)
Погода в Диге (Западная Бенгалия, Индия) (95 км)

Пояснения к столбцам:

Ветер - указаны скорость ветра в м/с - средняя за 10 мин, порывы в срок и между сроками (в фигурных скобках) и направление, откуда дует ветер: С - северный, СВ - северо-восточный, В - восточный, ЮВ - юго-восточный, Ю - южный, ЮЗ - юго-западный, З - западный, СЗ - северо-западный.
Видимость - горизонтальная дальность видимости в метрах или километрах. При видимости от 1 до 10 км при отсутствии осадков обычно наблюдается дымка, при ухудшении видимости до 1 км и менее - туман. В сухую погоду видимость может ухудшаться дымом, пылью или мглою.
Явления - указаны атмосферные явления, наблюдавшиеся в срок или в последний час перед сроком; фигурными скобками обозначены явления, наблюдавшиеся между сроками (за 1-3 часа до срока); квадратными скобками обозначены град или гололедные отложения с указанием их диаметра в мм.
Облачность - указаны через наклонную черту общая и нижняя облачность в баллах и высота нижней границы облаков в метрах; квадратными скобками обозначены формы облаков: Ci - перистые, Cs - перисто-слоистые, Cc - перисто-кучевые, Ac - высококучевые, As - высокослоистые, Sc - слоисто-кучевые, Ns - слоисто-дождевые, Cu - кучевые, Cb - кучево-дождевые. Подробнее классификацию облаков см. в Атласе облаков (PDF).
T - Температура воздуха - температура, измеренная на высоте 2 м над землей.
Td - Температура точки росы - температура, при понижении до которой содержащийся в воздухе водяной пар достигнет насыщения.
f - Относительная влажность воздуха - влажноcть воздуха, измеренная на высоте 2 м над землей.
Te - Эффективная температура - температура, которую ощущает одетый по сезону человек в тени. Характеристика душности погоды. При расчете учитывается влияние влажности воздуха и скорости ветра на теплоощущения человека.
Tes - Эффективная температура на солнце - температура, которую ощущает человек, с поправкой на солнечный нагрев. Характеристика знойности погоды. Зависит от высоты солнца над горизонтом, облачности и скорости ветра. Ночью, в пасмурную погоду, а также при ветре 12 м/с и более поправка равна нулю.
P - Атмосферное давление - приведенное к уровню моря атмосферное давление.
Po - Атмосферное давление - измеренное на уровне метеостанции атмосферное давление.
Tmin - Минимальная температура - минимум температуры воздуха на высоте 2 м над землей.
Tmax - Максимальная температура - максимум температуры воздуха на высоте 2 м над землей.
R - Количество осадков - Количество выпавших осадков за период времени, мм. При наведении курсора мыши на число - период времени, за который выпало указанное количество осадков.
R24 - Количество осадков - Количество выпавших осадков за 24 часа, мм.
S - Снежный покров - Высота снежного покрова, см. При наведении курсора мыши на число - состояние снежного покрова и степень покрытия местности в баллах.